DLH653 OEJN-EDDF

Flight info

Callsign DLH653
Flight time 2h 31m
Altitude 36000
Route BOMOX M686 OTEMO T55 KUNKI P751 TAKRI N710 KIVIL L613 MMA P751 METRU UM872 PLH UL604 DILMO/N0454F380 UL604 TRL DCT TUMBO DCT TAZ DCT NAVSU DCT ROLBA DCT SIMBA DCT AKINI T161 DEBHI DEBHI1D
Aircraft A20N/M-SDE2E3FGHIRWXY/LB1

Departure

Time 2026-05-07 20:51
Airport King Abdulaziz International Airport (OEJN)

Arrival

Time 2026-05-07 23:22
Airport Frankfurt Main Airport (EDDF)
Time Latitude Longitude Altitude Speed Heading
2026-05-07 19:34 21.66930 39.16862 56 ft 0 kts 31°
2026-05-07 20:35 21.66927 39.16861 56 ft 2 kts 32°
2026-05-07 20:36 21.66914 39.16852 56 ft 2 kts 31°
2026-05-07 20:36 21.66901 39.16844 56 ft 2 kts 32°
2026-05-07 20:36 21.66888 39.16835 56 ft 2 kts 31°
2026-05-07 20:36 21.66876 39.16827 56 ft 2 kts 31°
2026-05-07 20:37 21.66864 39.16819 56 ft 0 kts 32°
2026-05-07 20:37 21.66856 39.16814 56 ft 2 kts 32°
2026-05-07 20:37 21.66848 39.16808 56 ft 2 kts 30°
2026-05-07 20:37 21.66833 39.16805 56 ft 2 kts 352°
2026-05-07 20:38 21.66819 39.16810 56 ft 2 kts 323°
2026-05-07 20:38 21.66813 39.16816 56 ft 1 kts 306°
2026-05-07 20:38 21.66810 39.16820 56 ft 0 kts 309°
2026-05-07 20:43 21.66811 39.16820 56 ft 0 kts 309°
2026-05-07 20:44 21.66824 39.16801 56 ft 6 kts 309°
2026-05-07 20:44 21.66846 39.16772 56 ft 2 kts 302°
2026-05-07 20:44 21.66862 39.16742 56 ft 7 kts 295°
2026-05-07 20:44 21.66868 39.16726 56 ft 2 kts 291°
2026-05-07 20:45 21.66879 39.16691 56 ft 4 kts 287°
2026-05-07 20:45 21.66883 39.16678 56 ft 3 kts 282°
2026-05-07 20:45 21.66885 39.16663 56 ft 0 kts 275°
2026-05-07 20:45 21.66885 39.16660 56 ft 0 kts 274°
2026-05-07 20:46 21.66885 39.16645 56 ft 4 kts 273°
2026-05-07 20:46 21.66894 39.16598 56 ft 0 kts 282°
2026-05-07 20:46 21.66897 39.16575 56 ft 5 kts 263°
2026-05-07 20:46 21.66878 39.16516 56 ft 10 kts 249°
2026-05-07 20:47 21.66832 39.16433 56 ft 13 kts 206°
2026-05-07 20:47 21.66721 39.16450 56 ft 19 kts 159°
2026-05-07 20:47 21.66586 39.16505 55 ft 20 kts 160°
2026-05-07 20:47 21.66452 39.16557 56 ft 19 kts 160°
2026-05-07 20:48 21.66335 39.16601 55 ft 17 kts 161°
2026-05-07 20:48 21.66238 39.16639 55 ft 14 kts 168°
2026-05-07 20:48 21.66222 39.16641 56 ft 0 kts 179°
2026-05-07 20:48 21.66213 39.16641 56 ft 1 kts 182°
2026-05-07 20:49 21.66196 39.16636 56 ft 3 kts 205°
2026-05-07 20:49 21.66178 39.16617 55 ft 4 kts 236°
2026-05-07 20:49 21.66161 39.16576 55 ft 7 kts 249°
2026-05-07 20:49 21.66148 39.16518 55 ft 8 kts 275°
2026-05-07 20:50 21.66185 39.16465 56 ft 10 kts 329°
2026-05-07 20:50 21.66278 39.16426 55 ft 14 kts 340°
2026-05-07 20:50 21.66540 39.16324 56 ft 73 kts 339°
2026-05-07 20:50 21.67221 39.16058 56 ft 132 kts 338°
2026-05-07 20:51 21.68235 39.15638 173 ft 168 kts 341°
2026-05-07 20:51 21.69316 39.15154 750 ft 169 kts 333°
2026-05-07 20:51 21.70373 39.14600 1404 ft 170 kts 341°
2026-05-07 20:51 21.71493 39.14200 2006 ft 176 kts 344°
2026-05-07 20:52 21.72717 39.13785 2450 ft 193 kts 343°
2026-05-07 20:52 21.74052 39.13309 2832 ft 215 kts 342°
2026-05-07 20:52 21.75534 39.12757 3286 ft 235 kts 341°
2026-05-07 20:52 21.77139 39.12143 3820 ft 253 kts 341°
2026-05-07 20:53 21.78820 39.11487 4494 ft 261 kts 340°
2026-05-07 20:53 21.80552 39.10806 5019 ft 269 kts 340°
2026-05-07 20:53 21.82347 39.10099 5561 ft 276 kts 339°
2026-05-07 20:53 21.84169 39.09378 5902 ft 282 kts 339°
2026-05-07 20:54 21.86009 39.08649 5971 ft 284 kts 339°
2026-05-07 20:54 21.87870 39.07910 5981 ft 283 kts 339°
2026-05-07 20:54 21.89728 39.07158 5982 ft 283 kts 336°
2026-05-07 20:54 21.91544 39.06315 5983 ft 284 kts 335°
2026-05-07 20:55 21.93359 39.05446 5983 ft 283 kts 335°
2026-05-07 20:55 21.95151 39.04586 5981 ft 284 kts 335°
2026-05-07 20:55 21.96960 39.03717 5977 ft 283 kts 335°
2026-05-07 20:55 21.98759 39.02858 5994 ft 283 kts 335°
2026-05-07 20:56 22.00576 39.01990 5988 ft 283 kts 335°
2026-05-07 20:56 22.02380 39.01128 6130 ft 289 kts 335°
2026-05-07 20:56 22.04255 39.00234 6752 ft 291 kts 335°
2026-05-07 20:56 22.06092 38.99354 7402 ft 291 kts 335°
2026-05-07 20:57 22.07945 38.98467 7976 ft 294 kts 334°
2026-05-07 20:57 22.09831 38.97565 8525 ft 298 kts 335°
2026-05-07 20:57 22.11727 38.96655 9082 ft 301 kts 335°
2026-05-07 20:57 22.13666 38.95725 9633 ft 305 kts 334°
2026-05-07 20:58 22.15621 38.94789 10177 ft 308 kts 334°
2026-05-07 20:58 22.17593 38.93844 10491 ft 320 kts 334°
2026-05-07 20:58 22.19700 38.92837 10741 ft 335 kts 334°
2026-05-07 20:58 22.21862 38.91804 11005 ft 349 kts 334°
2026-05-07 20:59 22.24125 38.90675 11241 ft 362 kts 329°
2026-05-07 20:59 22.26164 38.89019 11465 ft 371 kts 311°
2026-05-07 20:59 22.27256 38.87591 11613 ft 377 kts 301°
2026-05-07 20:59 22.29041 38.84300 12024 ft 388 kts 296°
2026-05-07 21:00 22.29924 38.82583 12354 ft 391 kts 296°
2026-05-07 21:00 22.31693 38.79171 13110 ft 393 kts 296°
2026-05-07 21:00 22.33049 38.76589 13652 ft 395 kts 296°
2026-05-07 21:00 22.33952 38.74878 13995 ft 397 kts 296°
2026-05-07 21:01 22.35310 38.72315 14504 ft 399 kts 296°
2026-05-07 21:01 22.36026 38.70966 14767 ft 400 kts 296°
2026-05-07 21:01 22.37010 38.69008 15036 ft 375 kts 295°
2026-05-07 21:01 22.38255 38.66442 15352 ft 392 kts 293°
2026-05-07 21:02 22.39482 38.63803 15655 ft 386 kts 293°
2026-05-07 21:02 22.40677 38.61234 15968 ft 383 kts 293°
2026-05-07 21:02 22.15142 38.95018 10044 ft 307 kts 334°
2026-05-07 21:02 22.17141 38.94064 10432 ft 317 kts 334°
2026-05-07 21:03 22.19187 38.93083 10677 ft 331 kts 334°
2026-05-07 21:03 22.21350 38.92048 10949 ft 346 kts 334°
2026-05-07 21:03 22.23586 38.90971 11191 ft 359 kts 332°
2026-05-07 21:03 22.25714 38.89483 11415 ft 369 kts 315°
2026-05-07 21:04 22.27407 38.87349 11667 ft 376 kts 299°
2026-05-07 21:04 22.28736 38.84898 11941 ft 386 kts 296°
2026-05-07 21:04 22.30053 38.82337 12407 ft 390 kts 296°
2026-05-07 21:04 22.31373 38.79784 12966 ft 392 kts 296°
2026-05-07 21:05 22.32717 38.77215 13505 ft 395 kts 296°
2026-05-07 21:05 22.33617 38.75508 13858 ft 396 kts 296°
2026-05-07 21:05 22.34977 38.72942 14380 ft 398 kts 296°
2026-05-07 21:05 22.36822 38.69466 15060 ft 400 kts 296°
2026-05-07 21:06 22.38197 38.66876 15553 ft 402 kts 296°
2026-05-07 21:06 22.39595 38.64245 16046 ft 404 kts 296°
2026-05-07 21:06 22.40528 38.62484 16363 ft 405 kts 296°
2026-05-07 21:06 22.41919 38.59861 16834 ft 406 kts 296°
2026-05-07 21:07 22.43806 38.56291 17431 ft 409 kts 296°
2026-05-07 21:07 22.45203 38.53646 17875 ft 410 kts 296°
2026-05-07 21:07 22.46620 38.50969 18347 ft 411 kts 295°
2026-05-07 21:07 22.48067 38.48276 18811 ft 413 kts 298°
2026-05-07 21:08 22.49759 38.45747 19241 ft 419 kts 305°
2026-05-07 21:08 22.51045 38.44199 19539 ft 422 kts 310°
2026-05-07 21:08 22.53991 38.41382 20133 ft 427 kts 316°
2026-05-07 21:08 22.56309 38.39377 20573 ft 429 kts 316°
2026-05-07 21:09 22.57993 38.37935 20868 ft 430 kts 316°
2026-05-07 21:09 22.60351 38.35915 21304 ft 431 kts 316°
2026-05-07 21:09 22.62697 38.33901 21717 ft 432 kts 315°
2026-05-07 21:09 22.65041 38.31880 22138 ft 434 kts 315°
2026-05-07 21:10 22.67422 38.29826 22574 ft 435 kts 315°
2026-05-07 21:10 22.69770 38.27794 23005 ft 435 kts 315°
2026-05-07 21:10 22.72141 38.25740 23403 ft 437 kts 315°
2026-05-07 21:10 22.74525 38.23673 23768 ft 440 kts 315°
2026-05-07 21:11 22.76923 38.21592 24125 ft 442 kts 315°
2026-05-07 21:11 22.79325 38.19506 24494 ft 444 kts 315°
2026-05-07 21:11 22.84160 38.15308 25123 ft 449 kts 314°
2026-05-07 21:12 22.86592 38.13196 25491 ft 450 kts 314°
2026-05-07 21:12 22.88225 38.11777 25694 ft 452 kts 314°
2026-05-07 21:12 22.91508 38.08920 26058 ft 455 kts 314°
2026-05-07 21:12 22.93983 38.06767 26347 ft 457 kts 314°
2026-05-07 21:13 22.96483 38.04592 26638 ft 458 kts 314°
2026-05-07 21:13 22.98950 38.02443 26930 ft 459 kts 314°
2026-05-07 21:13 23.01433 38.00280 27273 ft 458 kts 314°
2026-05-07 21:13 23.03924 37.98110 27666 ft 456 kts 314°
2026-05-07 21:14 23.06410 37.95941 28087 ft 453 kts 314°
2026-05-07 21:14 23.08033 37.94527 28335 ft 452 kts 314°
2026-05-07 21:14 23.10470 37.92399 28655 ft 451 kts 313°
2026-05-07 21:14 23.13724 37.89554 28997 ft 450 kts 313°
2026-05-07 21:15 23.16175 37.87410 29309 ft 449 kts 313°
2026-05-07 21:15 23.18584 37.85302 29582 ft 448 kts 313°
2026-05-07 21:15 23.21022 37.83167 29817 ft 447 kts 313°
2026-05-07 21:15 23.23437 37.81052 30027 ft 447 kts 313°
2026-05-07 21:16 23.25842 37.78943 30244 ft 447 kts 313°
2026-05-07 21:16 23.28248 37.76831 30466 ft 446 kts 313°
2026-05-07 21:16 23.29882 37.75397 30610 ft 446 kts 313°
2026-05-07 21:16 23.32287 37.73289 30773 ft 447 kts 313°
2026-05-07 21:17 23.35533 37.70439 30985 ft 448 kts 313°
2026-05-07 21:17 23.37956 37.68316 31223 ft 446 kts 313°
2026-05-07 21:17 23.39538 37.66931 31385 ft 445 kts 313°
2026-05-07 21:17 23.41959 37.64808 31607 ft 444 kts 313°
2026-05-07 21:18 23.44357 37.62700 31757 ft 445 kts 313°
2026-05-07 21:18 23.47570 37.59871 31987 ft 444 kts 313°
2026-05-07 21:18 23.49954 37.57774 32220 ft 443 kts 313°
2026-05-07 21:18 23.51559 37.56361 32338 ft 443 kts 313°
2026-05-07 21:19 23.54732 37.53564 32553 ft 442 kts 313°
2026-05-07 21:19 23.56334 37.52148 32693 ft 441 kts 313°
2026-05-07 21:19 23.59510 37.49351 32991 ft 439 kts 313°
2026-05-07 21:19 23.61860 37.47274 33170 ft 438 kts 313°
2026-05-07 21:20 23.64249 37.45164 33308 ft 438 kts 313°
2026-05-07 21:20 23.65800 37.43792 33424 ft 437 kts 313°
2026-05-07 21:20 23.68180 37.41690 33678 ft 435 kts 313°
2026-05-07 21:20 23.70506 37.39635 33813 ft 435 kts 313°
2026-05-07 21:21 23.72860 37.37551 33924 ft 435 kts 313°
2026-05-07 21:21 23.75987 37.34780 34162 ft 434 kts 313°
2026-05-07 21:21 23.77551 37.33395 34269 ft 434 kts 313°
2026-05-07 21:21 23.80680 37.30621 34418 ft 435 kts 313°
2026-05-07 21:22 23.85374 37.26458 34606 ft 436 kts 313°
2026-05-07 21:22 23.87732 37.24366 34803 ft 435 kts 312°
2026-05-07 21:22 23.90085 37.22280 34906 ft 436 kts 312°
2026-05-07 21:23 23.94802 37.18086 35044 ft 437 kts 312°
2026-05-07 21:23 23.97150 37.15996 35155 ft 437 kts 313°
2026-05-07 21:23 23.98723 37.14596 35218 ft 438 kts 313°
2026-05-07 21:24 24.01856 37.11808 35319 ft 439 kts 312°
2026-05-07 21:24 24.04224 37.09700 35400 ft 439 kts 313°
2026-05-07 21:24 24.06598 37.07585 35535 ft 438 kts 313°
2026-05-07 21:24 24.08939 37.05499 35647 ft 437 kts 313°
2026-05-07 21:25 24.13662 37.01281 35662 ft 440 kts 313°
2026-05-07 21:25 24.18432 36.97023 35789 ft 440 kts 313°
2026-05-07 21:26 24.23161 36.92794 35834 ft 441 kts 313°
2026-05-07 21:26 24.27916 36.88542 35883 ft 442 kts 313°
2026-05-07 21:27 24.32682 36.84272 35882 ft 443 kts 313°
2026-05-07 21:27 24.37457 36.79990 35885 ft 443 kts 314°
2026-05-07 21:28 24.42201 36.75729 35884 ft 443 kts 314°
2026-05-07 21:28 24.46986 36.71427 35886 ft 444 kts 314°
2026-05-07 21:29 24.50969 36.67841 35885 ft 444 kts 314°
2026-05-07 21:29 24.56403 36.62759 35888 ft 439 kts 309°
2026-05-07 21:30 24.60369 36.57715 35893 ft 431 kts 300°
2026-05-07 21:30 24.63436 36.52183 35888 ft 424 kts 292°
2026-05-07 21:31 24.65654 36.46234 35893 ft 420 kts 285°
2026-05-07 21:31 24.67553 36.40145 35895 ft 421 kts 285°
2026-05-07 21:32 24.69430 36.34082 35896 ft 421 kts 285°
2026-05-07 21:32 24.71309 36.28011 35894 ft 421 kts 285°
2026-05-07 21:33 24.73184 36.21943 35898 ft 421 kts 285°
2026-05-07 21:33 24.74749 36.16873 35897 ft 421 kts 285°
2026-05-07 21:34 24.76945 36.09740 35897 ft 423 kts 286°
2026-05-07 21:34 24.78826 36.03625 35903 ft 422 kts 286°
2026-05-07 21:35 24.80699 35.97528 35900 ft 423 kts 286°
2026-05-07 21:35 24.82565 35.91441 35901 ft 423 kts 287°
2026-05-07 21:36 24.84120 35.86357 35900 ft 422 kts 287°
2026-05-07 21:36 24.85987 35.80254 35906 ft 422 kts 287°
2026-05-07 21:37 24.87856 35.74128 35906 ft 422 kts 287°
2026-05-07 21:37 24.89715 35.68026 35907 ft 421 kts 287°
2026-05-07 21:38 24.91885 35.60887 35909 ft 422 kts 287°
2026-05-07 21:38 24.93438 35.55771 35902 ft 421 kts 288°
2026-05-07 21:39 24.95599 35.48644 35910 ft 421 kts 288°
2026-05-07 21:39 24.97127 35.43588 35917 ft 421 kts 288°
2026-05-07 21:40 24.99290 35.36423 35910 ft 422 kts 288°
2026-05-07 21:40 25.01129 35.30313 35917 ft 423 kts 288°
2026-05-07 21:41 25.02981 35.24171 35909 ft 423 kts 289°
2026-05-07 21:41 25.04815 35.19190 35919 ft 422 kts 295°
2026-05-07 21:42 25.07784 35.13374 35921 ft 423 kts 302°
2026-05-07 21:42 25.11077 35.08555 35924 ft 426 kts 309°
2026-05-07 21:43 25.15186 35.03830 35926 ft 425 kts 313°
2026-05-07 21:43 25.19389 34.99255 35932 ft 424 kts 314°
2026-05-07 21:44 25.22880 34.95459 35917 ft 425 kts 314°
2026-05-07 21:44 25.27097 34.90870 35935 ft 424 kts 314°
2026-05-07 21:45 25.31966 34.85569 35934 ft 422 kts 314°
2026-05-07 21:45 25.36161 34.80992 35927 ft 423 kts 314°
2026-05-07 21:46 25.39619 34.77217 35930 ft 422 kts 314°
2026-05-07 21:46 25.43799 34.72647 35936 ft 422 kts 314°
2026-05-07 21:47 25.48650 34.67337 35933 ft 421 kts 314°
2026-05-07 21:47 25.52828 34.62755 35941 ft 421 kts 314°
2026-05-07 21:48 25.56271 34.58982 35943 ft 420 kts 314°
2026-05-07 21:48 25.60855 34.53453 35942 ft 418 kts 310°
2026-05-07 21:49 25.64626 34.48570 35942 ft 417 kts 310°
2026-05-07 21:49 25.68401 34.43662 35940 ft 417 kts 310°
2026-05-07 21:50 25.71518 34.39605 35946 ft 417 kts 310°
2026-05-07 21:50 25.75282 34.34708 35946 ft 416 kts 309°
2026-05-07 21:51 25.98266 34.04651 36177 ft 416 kts 310°
2026-05-07 21:51 26.14726 33.83010 35995 ft 414 kts 310°
2026-05-07 21:51 26.19626 33.76571 35981 ft 410 kts 310°
2026-05-07 21:52 26.35570 33.55479 36012 ft 409 kts 310°
2026-05-07 21:52 26.59856 33.23203 36017 ft 406 kts 310°
2026-05-07 21:53 26.79957 32.96274 35830 ft 403 kts 311°
2026-05-07 21:53 26.81738 32.93879 35931 ft 401 kts 311°
2026-05-07 21:53 26.85321 32.89081 35984 ft 401 kts 311°
2026-05-07 21:54 26.88876 32.84304 36002 ft 401 kts 311°
2026-05-07 21:54 26.92448 32.79499 36001 ft 400 kts 311°
2026-05-07 21:55 26.95979 32.74740 36008 ft 399 kts 311°
2026-05-07 21:55 26.99520 32.69958 36007 ft 398 kts 311°
2026-05-07 21:56 27.03059 32.65170 36024 ft 398 kts 311°
2026-05-07 21:56 27.06582 32.60406 36028 ft 397 kts 312°
2026-05-07 21:57 27.10097 32.55647 36033 ft 396 kts 311°
2026-05-07 21:57 27.13030 32.51659 36048 ft 397 kts 312°
2026-05-07 21:58 27.17120 32.46111 36043 ft 396 kts 312°
2026-05-07 21:58 27.20615 32.41362 36055 ft 396 kts 312°
2026-05-07 21:59 27.23556 32.37355 36056 ft 396 kts 312°
2026-05-07 21:59 27.27631 32.31797 36062 ft 397 kts 312°
2026-05-07 22:00 27.30549 32.27807 36065 ft 396 kts 311°
2026-05-07 22:00 27.34488 32.22090 36063 ft 396 kts 310°
2026-05-07 22:01 27.37828 32.17204 36057 ft 395 kts 310°
2026-05-07 22:01 27.41169 32.12312 36062 ft 396 kts 310°
2026-05-07 22:02 27.44514 32.07417 36058 ft 395 kts 311°
2026-05-07 22:02 27.47860 32.02522 36060 ft 394 kts 311°
2026-05-07 22:03 27.51205 31.97626 36054 ft 394 kts 311°
2026-05-07 22:03 27.54538 31.92732 36053 ft 395 kts 311°
2026-05-07 22:04 27.57876 31.87825 36051 ft 394 kts 311°
2026-05-07 22:04 27.61220 31.82907 36051 ft 396 kts 311°
2026-05-07 22:05 27.64548 31.78009 36050 ft 396 kts 311°
2026-05-07 22:05 27.67889 31.73086 36047 ft 397 kts 311°
2026-05-07 22:06 27.71236 31.68152 36048 ft 396 kts 311°
2026-05-07 22:06 27.74569 31.63229 36044 ft 395 kts 311°
2026-05-07 22:07 27.83734 31.49643 36043 ft 397 kts 312°
2026-05-07 22:07 27.97092 31.29797 36046 ft 396 kts 311°
2026-05-07 22:08 28.10219 31.09904 36040 ft 395 kts 310°
2026-05-07 22:08 28.20311 30.92534 36049 ft 395 kts 309°
2026-05-07 22:09 28.34390 30.68526 36052 ft 393 kts 309°
2026-05-07 22:09 28.46445 30.47888 36061 ft 390 kts 309°
2026-05-07 22:10 28.58337 30.27402 36070 ft 390 kts 309°
2026-05-07 22:10 28.70274 30.06773 36090 ft 388 kts 309°
2026-05-07 22:11 28.82068 29.86257 36107 ft 388 kts 309°
2026-05-07 22:11 28.93867 29.65642 36105 ft 388 kts 309°
2026-05-07 22:12 29.05584 29.45047 36110 ft 389 kts 309°
2026-05-07 22:12 29.19208 29.26282 36123 ft 379 kts 324°
2026-05-07 22:13 29.36344 29.12462 36140 ft 378 kts 324°
2026-05-07 22:13 29.50861 28.94838 36148 ft 388 kts 310°
2026-05-07 22:14 29.63703 28.75251 36117 ft 382 kts 316°
2026-05-07 22:14 29.79973 28.59866 36127 ft 379 kts 326°
2026-05-07 22:15 29.96726 28.45284 36138 ft 379 kts 324°
2026-05-07 22:15 30.13418 28.30263 36163 ft 378 kts 324°
2026-05-07 22:16 30.27156 28.17950 36147 ft 378 kts 324°
2026-05-07 22:16 30.46659 28.00350 36163 ft 379 kts 323°
2026-05-07 22:17 30.63275 27.85279 36168 ft 380 kts 323°
2026-05-07 22:17 30.79869 27.70181 36170 ft 381 kts 324°
2026-05-07 22:18 31.04970 27.47190 36169 ft 383 kts 323°
2026-05-07 22:19 31.35727 27.18879 36155 ft 384 kts 326°
2026-05-07 22:19 31.71795 26.92684 36160 ft 384 kts 327°
2026-05-07 22:20 32.22348 26.54094 36142 ft 386 kts 327°
2026-05-07 22:20 32.52917 26.30626 36147 ft 387 kts 327°
2026-05-07 22:21 32.89184 26.02579 36133 ft 388 kts 326°
2026-05-07 22:21 33.19297 25.79061 36192 ft 390 kts 326°
2026-05-07 22:22 33.61460 25.45799 36110 ft 391 kts 325°
2026-05-07 22:22 33.91680 25.21687 36171 ft 393 kts 324°
2026-05-07 22:22 34.14792 25.00364 36169 ft 393 kts 313°
2026-05-07 22:23 34.24412 24.87038 36168 ft 394 kts 310°
2026-05-07 22:23 34.60998 24.44539 36182 ft 392 kts 313°
2026-05-07 22:24 34.91606 24.06789 36185 ft 392 kts 314°
2026-05-07 22:24 35.22319 23.68854 36158 ft 393 kts 316°
2026-05-07 22:24 35.33950 23.58231 36139 ft 396 kts 329°
2026-05-07 22:25 35.62220 23.47404 36198 ft 405 kts 341°
2026-05-07 22:25 35.86051 23.36978 36213 ft 398 kts 329°
2026-05-07 22:25 35.88357 23.35148 36150 ft 392 kts 317°
2026-05-07 22:25 35.90181 23.32734 36150 ft 390 kts 304°
2026-05-07 22:26 35.91721 23.29946 36150 ft 390 kts 307°
2026-05-07 22:26 35.95567 23.25290 36151 ft 393 kts 320°
2026-05-07 22:27 36.00178 23.21635 36155 ft 396 kts 327°
2026-05-07 22:27 36.05024 23.18442 36148 ft 395 kts 329°
2026-05-07 22:28 36.15060 23.12265 36162 ft 395 kts 329°
2026-05-07 22:28 36.34799 23.00154 36155 ft 395 kts 329°
2026-05-07 22:29 36.54437 22.88026 36153 ft 395 kts 329°
2026-05-07 22:29 36.82826 22.70339 36156 ft 396 kts 329°
2026-05-07 22:30 37.22507 22.45415 36200 ft 397 kts 327°
2026-05-07 22:30 37.61734 22.19806 36223 ft 398 kts 325°
2026-05-07 22:31 38.00747 21.93135 36244 ft 403 kts 326°
2026-05-07 22:31 38.52611 21.57377 36180 ft 403 kts 325°
2026-05-07 22:31 38.91651 21.30019 35991 ft 401 kts 324°
2026-05-07 22:32 39.30707 21.02312 36688 ft 400 kts 323°
2026-05-07 22:32 39.69721 20.74275 37196 ft 400 kts 322°
2026-05-07 22:32 40.08603 20.45928 34120 ft 404 kts 321°
2026-05-07 22:32 40.34713 20.26862 38203 ft 402 kts 320°
2026-05-07 22:33 40.86193 19.88672 33464 ft 402 kts 321°
2026-05-07 22:33 41.24881 19.60003 38956 ft 398 kts 319°
2026-05-07 22:33 41.63191 19.30194 33394 ft 402 kts 322°
2026-05-07 22:33 41.70514 19.24608 34510 ft 390 kts 323°
2026-05-07 22:34 41.72805 19.22970 35527 ft 372 kts 322°
2026-05-07 22:34 41.75072 19.21310 35887 ft 368 kts 321°
2026-05-07 22:34 41.77290 19.19649 36002 ft 370 kts 320°
2026-05-07 22:35 41.81808 19.16188 36065 ft 377 kts 320°
2026-05-07 22:35 41.85618 19.13251 36070 ft 384 kts 320°
2026-05-07 22:36 42.06646 18.96924 36084 ft 393 kts 321°
2026-05-07 22:36 42.25671 18.82041 36090 ft 399 kts 321°
2026-05-07 22:37 42.44782 18.66764 35994 ft 403 kts 320°
2026-05-07 22:37 42.51196 18.61560 36098 ft 404 kts 321°
2026-05-07 22:37 42.64128 18.51053 36108 ft 408 kts 321°
2026-05-07 22:38 42.83755 18.35062 36120 ft 413 kts 321°
2026-05-07 22:38 43.03515 18.18813 36118 ft 419 kts 321°
2026-05-07 22:39 43.23438 18.02323 36079 ft 424 kts 321°
2026-05-07 22:39 43.43726 17.85390 36085 ft 427 kts 321°
2026-05-07 22:40 43.63973 17.68358 36098 ft 428 kts 321°
2026-05-07 22:40 43.84136 17.51259 36108 ft 429 kts 321°
2026-05-07 22:41 44.04517 17.33830 36120 ft 429 kts 320°
2026-05-07 22:41 44.24704 17.16425 36109 ft 430 kts 320°
2026-05-07 22:42 44.44926 16.98830 36103 ft 430 kts 320°
2026-05-07 22:42 44.61737 16.83931 36099 ft 429 kts 319°
2026-05-07 22:43 44.84686 16.61963 36072 ft 430 kts 319°
2026-05-07 22:43 45.01181 16.46270 36065 ft 430 kts 319°
2026-05-07 22:44 45.20935 16.27282 36061 ft 433 kts 319°
2026-05-07 22:44 45.44111 16.04802 36045 ft 434 kts 319°
2026-05-07 22:45 45.64053 15.85270 36034 ft 435 kts 319°
2026-05-07 22:45 45.83919 15.65632 36035 ft 436 kts 319°
2026-05-07 22:46 46.03390 15.45313 36035 ft 436 kts 317°
2026-05-07 22:46 46.22951 15.24567 36047 ft 437 kts 317°
2026-05-07 22:47 46.42472 15.03767 36070 ft 437 kts 317°
2026-05-07 22:47 46.58734 14.86264 36063 ft 437 kts 317°
2026-05-07 22:48 46.81490 14.61555 36086 ft 438 kts 317°
2026-05-07 22:48 47.00961 14.40213 36096 ft 438 kts 318°
2026-05-07 22:49 47.20344 14.18748 36074 ft 438 kts 317°
2026-05-07 22:49 47.39648 13.97185 36079 ft 437 kts 317°
2026-05-07 22:50 47.58928 13.75431 36072 ft 439 kts 318°
2026-05-07 22:50 47.78320 13.53353 36092 ft 440 kts 318°
2026-05-07 22:51 47.97597 13.31177 36091 ft 441 kts 317°
2026-05-07 22:51 48.13749 13.12434 36074 ft 441 kts 318°
2026-05-07 22:52 48.34403 12.83266 36102 ft 437 kts 306°
2026-05-07 22:52 48.50013 12.55470 36078 ft 439 kts 309°
2026-05-07 22:53 48.66081 12.27958 36073 ft 439 kts 308°
2026-05-07 22:53 48.78440 11.97061 36095 ft 431 kts 279°
2026-05-07 22:53 48.78936 11.79027 36141 ft 429 kts 266°
2026-05-07 22:54 48.78603 11.61842 36044 ft 430 kts 274°
2026-05-07 22:54 48.80671 11.43973 36083 ft 433 kts 286°
2026-05-07 22:54 48.84799 11.27116 36098 ft 434 kts 290°
2026-05-07 22:54 48.90575 11.11095 36013 ft 438 kts 308°
2026-05-07 22:55 48.99892 10.98810 36116 ft 445 kts 325°
2026-05-07 22:55 49.13942 10.84466 36064 ft 440 kts 309°
2026-05-07 22:56 49.16788 10.78168 36016 ft 432 kts 302°
2026-05-07 22:56 49.19262 10.73371 35433 ft 434 kts 310°
2026-05-07 22:56 49.21307 10.69996 34759 ft 438 kts 311°
2026-05-07 22:56 49.22706 10.67762 34323 ft 440 kts 312°
2026-05-07 22:57 49.25538 10.63295 33601 ft 440 kts 313°
2026-05-07 22:57 49.27658 10.59954 33041 ft 441 kts 313°
2026-05-07 22:57 49.29788 10.56594 32313 ft 442 kts 313°
2026-05-07 22:57 49.31913 10.53235 31553 ft 444 kts 313°
2026-05-07 22:58 49.34040 10.49831 30704 ft 447 kts 312°
2026-05-07 22:58 49.36084 10.46235 29720 ft 449 kts 309°
2026-05-07 22:58 49.37968 10.42510 28725 ft 451 kts 306°
2026-05-07 22:58 49.39800 10.38574 27723 ft 453 kts 305°
2026-05-07 22:59 49.40992 10.35964 27038 ft 455 kts 304°
2026-05-07 22:59 49.43409 10.30646 25605 ft 458 kts 304°
2026-05-07 22:59 49.45204 10.26688 24510 ft 461 kts 304°
2026-05-07 22:59 49.47023 10.22676 23587 ft 458 kts 304°
2026-05-07 23:00 49.48825 10.18697 22949 ft 451 kts 304°
2026-05-07 23:00 49.50608 10.14757 22255 ft 445 kts 304°
2026-05-07 23:00 49.51770 10.12188 21786 ft 442 kts 304°
2026-05-07 23:00 49.54092 10.07051 20845 ft 437 kts 304°
2026-05-07 23:01 49.55798 10.03269 20147 ft 433 kts 304°
2026-05-07 23:01 49.57492 9.99508 19466 ft 429 kts 304°
2026-05-07 23:01 49.59178 9.95765 18780 ft 425 kts 304°
2026-05-07 23:01 49.60866 9.92015 18100 ft 421 kts 303°
2026-05-07 23:02 49.62501 9.88373 17453 ft 418 kts 303°
2026-05-07 23:02 49.64132 9.84732 16783 ft 414 kts 303°
2026-05-07 23:02 49.65758 9.81093 16116 ft 411 kts 304°
2026-05-07 23:02 49.67371 9.77477 15457 ft 408 kts 304°
2026-05-07 23:03 49.68970 9.73889 14811 ft 405 kts 304°
2026-05-07 23:03 49.70550 9.70336 14164 ft 402 kts 304°
2026-05-07 23:03 49.72106 9.66834 13536 ft 398 kts 304°
2026-05-07 23:03 49.73657 9.63343 13155 ft 388 kts 304°
2026-05-07 23:04 49.75160 9.59959 12984 ft 374 kts 304°
2026-05-07 23:04 49.77477 9.54734 12582 ft 368 kts 304°
2026-05-07 23:04 49.80341 9.48245 12083 ft 366 kts 304°
2026-05-07 23:04 49.83229 9.41683 11580 ft 363 kts 304°
2026-05-07 23:05 49.85940 9.35161 11067 ft 360 kts 298°
2026-05-07 23:05 49.87850 9.28119 10100 ft 357 kts 286°
2026-05-07 23:05 49.89073 9.20813 9706 ft 344 kts 283°
2026-05-07 23:05 49.90243 9.13850 9457 ft 328 kts 285°
2026-05-07 23:06 49.91810 9.05606 9119 ft 306 kts 288°
2026-05-07 23:06 49.94990 8.93894 8583 ft 285 kts 298°
2026-05-07 23:06 49.98748 8.83353 8068 ft 273 kts 298°
2026-05-07 23:06 50.02242 8.72850 7543 ft 272 kts 296°
2026-05-07 23:07 50.05548 8.62299 7007 ft 270 kts 296°
2026-05-07 23:07 50.08867 8.51835 6501 ft 269 kts 297°
2026-05-07 23:07 50.11497 8.43112 6072 ft 268 kts 285°
2026-05-07 23:07 50.11469 8.40289 5930 ft 269 kts 251°
2026-05-07 23:08 50.10605 8.37699 5820 ft 269 kts 239°
2026-05-07 23:08 50.09643 8.35231 5694 ft 269 kts 241°
2026-05-07 23:08 50.08754 8.32643 5567 ft 268 kts 244°
2026-05-07 23:08 50.07977 8.30034 5402 ft 267 kts 246°
2026-05-07 23:09 50.07252 8.27364 4730 ft 272 kts 248°
2026-05-07 23:09 50.06542 8.24585 3867 ft 284 kts 249°
2026-05-07 23:09 50.05832 8.21716 3277 ft 284 kts 249°
2026-05-07 23:09 50.03874 8.13730 2857 ft 270 kts 250°
2026-05-07 23:10 50.01271 8.03083 2981 ft 262 kts 250°
2026-05-07 23:10 49.99533 7.95955 2973 ft 261 kts 250°
2026-05-07 23:10 49.98060 7.89943 2952 ft 239 kts 250°
2026-05-07 23:10 49.97471 7.87554 2961 ft 238 kts 250°
2026-05-07 23:11 49.96877 7.85142 2965 ft 238 kts 250°
2026-05-07 23:11 49.96211 7.82809 2961 ft 238 kts 239°
2026-05-07 23:11 49.95200 7.80805 2954 ft 232 kts 224°
2026-05-07 23:11 49.93991 7.79310 2938 ft 212 kts 215°
2026-05-07 23:12 49.93198 7.78470 2977 ft 207 kts 214°
2026-05-07 23:12 49.91590 7.77259 2970 ft 180 kts 192°
2026-05-07 23:12 49.90396 7.77113 2942 ft 167 kts 174°
2026-05-07 23:12 49.89270 7.77498 2955 ft 166 kts 157°
2026-05-07 23:13 49.88268 7.78352 2962 ft 164 kts 140°
2026-05-07 23:13 49.87474 7.79577 2966 ft 163 kts 124°
2026-05-07 23:13 49.86924 7.81106 2966 ft 161 kts 108°
2026-05-07 23:13 49.86673 7.82770 2966 ft 160 kts 93°
2026-05-07 23:14 49.86615 7.84503 2970 ft 159 kts 89°
2026-05-07 23:14 49.86664 7.86200 2969 ft 159 kts 82°
2026-05-07 23:14 49.86847 7.87883 2969 ft 158 kts 77°
2026-05-07 23:14 49.87078 7.89562 2969 ft 159 kts 76°
2026-05-07 23:15 49.87310 7.91239 2969 ft 158 kts 76°
2026-05-07 23:15 49.87465 7.92344 2970 ft 158 kts 73°
2026-05-07 23:15 49.88101 7.94368 2974 ft 158 kts 59°
2026-05-07 23:15 49.88627 7.95867 2971 ft 158 kts 62°
2026-05-07 23:16 49.89106 7.97399 3000 ft 158 kts 63°
2026-05-07 23:16 49.89585 7.98929 2984 ft 158 kts 63°
2026-05-07 23:16 49.90047 8.00474 2979 ft 158 kts 64°
2026-05-07 23:16 49.90494 8.02049 2887 ft 158 kts 66°
2026-05-07 23:17 49.90906 8.03618 2767 ft 157 kts 68°
2026-05-07 23:17 49.91307 8.05191 2650 ft 157 kts 68°
2026-05-07 23:17 49.91757 8.06968 2515 ft 156 kts 68°
2026-05-07 23:17 49.93332 8.13378 2036 ft 155 kts 69°
2026-05-07 23:18 49.93699 8.14952 1914 ft 154 kts 70°
2026-05-07 23:18 49.94055 8.16498 1796 ft 153 kts 70°
2026-05-07 23:18 49.94410 8.18045 1691 ft 151 kts 70°
2026-05-07 23:18 49.94759 8.19555 1563 ft 146 kts 70°
2026-05-07 23:19 49.95105 8.21052 1447 ft 145 kts 70°
2026-05-07 23:19 49.95901 8.24475 1185 ft 145 kts 69°
2026-05-07 23:19 49.98020 8.33481 1032 ft 144 kts 69°
2026-05-07 23:19 49.99912 8.41472 916 ft 144 kts 69°
2026-05-07 23:20 50.00264 8.42942 953 ft 144 kts 68°
2026-05-07 23:20 50.00615 8.44407 969 ft 144 kts 69°
2026-05-07 23:20 50.00959 8.45855 974 ft 144 kts 69°
2026-05-07 23:20 50.01309 8.47333 971 ft 144 kts 69°
2026-05-07 23:21 50.01655 8.48791 898 ft 144 kts 68°
2026-05-07 23:21 50.02003 8.50256 779 ft 144 kts 68°
2026-05-07 23:21 50.02346 8.51700 584 ft 143 kts 68°
2026-05-07 23:21 50.02686 8.53137 441 ft 140 kts 68°
2026-05-07 23:22 50.03033 8.54519 330 ft 127 kts 69°
2026-05-07 23:22 50.03230 8.55348 333 ft 38 kts 74°
2026-05-07 23:22 50.03245 8.55604 332 ft 18 kts 94°
2026-05-07 23:22 50.03235 8.55788 335 ft 16 kts 95°
2026-05-07 23:23 50.03215 8.55949 336 ft 15 kts 97°
2026-05-07 23:23 50.03199 8.56111 336 ft 15 kts 111°
2026-05-07 23:23 50.03126 8.56216 337 ft 13 kts 152°
2026-05-07 23:23 50.03108 8.56325 340 ft 10 kts 72°
2026-05-07 23:24 50.03115 8.56355 340 ft 0 kts 69°